• In Deutschland
  • Länderverzeichnis
  • Für 7 Tage
  • Wassertemperatur
  • Satellitenkarten
  • Wetterkarte
  • Widgets
  • user-avatar
    Anmelden

    Stündliche Wetter Orange Walk

    Heute, 24 September, Montag

    Zeit Temperatur Niederschläge Wind Luftdruck Luftfeuchtigkeit
    00:00 +26°C° 0 mm 1 m/S 756 mmHg 96%
    01:00 +26°C° 0.1 mm 1 m/S 756 mmHg 96%
    02:00 +26°C° 0.1 mm 1 m/S 756 mmHg 96%
    03:00 +26°C° 0.1 mm 1 m/S 755 mmHg 96%
    04:00 +26°C° 0.1 mm 1 m/S 756 mmHg 96%
    05:00 +26°C° 0.1 mm 1 m/S 756 mmHg 96%
    06:00 +26°C° 0.1 mm 1 m/S 756 mmHg 96%
    07:00 +27°C° 0.3 mm 1 m/S 757 mmHg 93%
    08:00 +29°C° 0.3 mm 1 m/S 757 mmHg 89%
    09:00 +30°C° 0.3 mm 2 m/S 758 mmHg 85%
    10:00 +29°C° 0.8 mm 2 m/S 757 mmHg 87%
    11:00 +29°C° 0.8 mm 1 m/S 757 mmHg 89%
    12:00 +29°C° 0.8 mm 1 m/S 757 mmHg 91%
    13:00 +29°C° 0.4 mm 1 m/S 757 mmHg 92%
    14:00 +28°C° 0.4 mm 1 m/S 756 mmHg 93%
    15:00 +28°C° 0.4 mm 1 m/S 756 mmHg 94%
    16:00 +28°C° 0.1 mm 1 m/S 756 mmHg 95%
    17:00 +27°C° 0.1 mm 1 m/S 756 mmHg 96%
    18:00 +27°C° 0.1 mm 1 m/S 756 mmHg 98%
    19:00 +26°C° 0 mm 1 m/S 757 mmHg 98%
    20:00 +26°C° 0 mm 1 m/S 757 mmHg 97%
    21:00 +26°C° 0 mm 1 m/S 758 mmHg 97%
    22:00 +26°C° 0.1 mm 1 m/S 757 mmHg 97%
    23:00 +26°C° 0.1 mm 1 m/S 757 mmHg 98%

    Morgen, 25 September, Dienstag

    Zeit Temperatur Niederschläge Wind Luftdruck Luftfeuchtigkeit
    00:00 +26°C° 0.1 mm 1 m/S 757 mmHg 98%
    01:00 +26°C° 0.1 mm 1 m/S 757 mmHg 98%
    02:00 +26°C° 0.1 mm 1 m/S 757 mmHg 98%
    03:00 +26°C° 0.1 mm 1 m/S 756 mmHg 98%
    04:00 +26°C° 0.2 mm 1 m/S 756 mmHg 98%
    05:00 +26°C° 0.2 mm 1 m/S 757 mmHg 98%
    06:00 +26°C° 0.2 mm 1 m/S 757 mmHg 98%
    07:00 +27°C° 0.7 mm 2 m/S 757 mmHg 96%
    08:00 +28°C° 0.7 mm 2 m/S 758 mmHg 93%
    09:00 +29°C° 0.7 mm 2 m/S 758 mmHg 91%
    10:00 +29°C° 0.7 mm 2 m/S 758 mmHg 87%
    11:00 +30°C° 0.7 mm 2 m/S 758 mmHg 83%
    12:00 +31°C° 0.7 mm 3 m/S 758 mmHg 79%
    13:00 +33°C° 0.4 mm 3 m/S 757 mmHg 75%
    14:00 +33°C° 0.4 mm 3 m/S 756 mmHg 70%
    15:00 +34°C° 0.4 mm 3 m/S 756 mmHg 66%
    16:00 +31°C° 0.1 mm 3 m/S 756 mmHg 72%
    17:00 +30°C° 0.1 mm 2 m/S 756 mmHg 78%
    18:00 +28°C° 0.1 mm 2 m/S 756 mmHg 85%
    19:00 +28°C° 0 mm 2 m/S 757 mmHg 88%
    20:00 +27°C° 0 mm 2 m/S 757 mmHg 91%
    21:00 +26°C° 0 mm 2 m/S 758 mmHg 94%
    22:00 +26°C° 0.1 mm 2 m/S 758 mmHg 94%
    23:00 +26°C° 0.1 mm 2 m/S 758 mmHg 95%

    übermorgen, 26 September, Mittwoch

    Zeit Temperatur Niederschläge Wind Luftdruck Luftfeuchtigkeit
    00:00 +26°C° 0.1 mm 2 m/S 758 mmHg 95%
    01:00 +26°C° 0.1 mm 2 m/S 757 mmHg 96%
    02:00 +26°C° 0.1 mm 2 m/S 757 mmHg 97%
    03:00 +26°C° 0.1 mm 2 m/S 756 mmHg 97%
    04:00 +26°C° 0.1 mm 2 m/S 756 mmHg 97%
    05:00 +26°C° 0.1 mm 2 m/S 757 mmHg 97%
    06:00 +26°C° 0.1 mm 2 m/S 757 mmHg 97%
    07:00 +27°C° 0.5 mm 2 m/S 757 mmHg 94%
    08:00 +28°C° 0.5 mm 2 m/S 758 mmHg 91%
    09:00 +29°C° 0.5 mm 2 m/S 759 mmHg 88%
    10:00 +30°C° 0.8 mm 2 m/S 758 mmHg 86%
    11:00 +30°C° 0.8 mm 2 m/S 758 mmHg 84%
    12:00 +31°C° 0.8 mm 2 m/S 757 mmHg 82%
    13:00 +31°C° 0.7 mm 2 m/S 757 mmHg 82%
    14:00 +31°C° 0.7 mm 2 m/S 756 mmHg 81%
    15:00 +31°C° 0.7 mm 2 m/S 755 mmHg 81%
    16:00 +29°C° 0.6 mm 2 m/S 756 mmHg 85%
    17:00 +28°C° 0.6 mm 2 m/S 756 mmHg 89%
    18:00 +27°C° 0.6 mm 2 m/S 756 mmHg 94%
    19:00 +27°C° 0.1 mm 2 m/S 757 mmHg 95%
    20:00 +26°C° 0.1 mm 2 m/S 757 mmHg 96%
    21:00 +26°C° 0.1 mm 2 m/S 757 mmHg 97%
    22:00 +26°C° 0.7 mm 2 m/S 757 mmHg 98%
    23:00 +26°C° 0.7 mm 1 m/S 757 mmHg 98%

    27 September, Donnerstag

    Zeit Temperatur Niederschläge Wind Luftdruck Luftfeuchtigkeit
    00:00 +26°C° 0.7 mm 1 m/S 757 mmHg 98%
    01:00 +25°C° 0.9 mm 1 m/S 756 mmHg 99%
    02:00 +25°C° 0.9 mm 1 m/S 756 mmHg 99%
    03:00 +25°C° 0.9 mm 1 m/S 755 mmHg 99%
    04:00 +25°C° 0.5 mm 1 m/S 756 mmHg 99%
    05:00 +25°C° 0.5 mm 1 m/S 756 mmHg 99%
    06:00 +25°C° 0.5 mm 1 m/S 756 mmHg 99%
    07:00 +27°C° 0.6 mm 2 m/S 757 mmHg 95%
    08:00 +28°C° 0.6 mm 2 m/S 757 mmHg 92%
    09:00 +29°C° 0.6 mm 2 m/S 758 mmHg 89%
    10:00 +29°C° 1.1 mm 2 m/S 757 mmHg 89%
    11:00 +29°C° 1.1 mm 2 m/S 757 mmHg 89%
    12:00 +30°C° 1.1 mm 2 m/S 757 mmHg 89%
    13:00 +30°C° 0.8 mm 2 m/S 756 mmHg 87%
    14:00 +30°C° 0.8 mm 2 m/S 755 mmHg 85%
    15:00 +30°C° 0.8 mm 2 m/S 755 mmHg 83%
    16:00 +29°C° 0.2 mm 2 m/S 755 mmHg 86%
    17:00 +28°C° 0.2 mm 2 m/S 756 mmHg 89%
    18:00 +27°C° 0.2 mm 2 m/S 756 mmHg 92%
    19:00 +27°C° 0.1 mm 2 m/S 757 mmHg 94%
    20:00 +27°C° 0.1 mm 2 m/S 757 mmHg 96%
    21:00 +26°C° 0.1 mm 2 m/S 758 mmHg 98%
    22:00 +26°C° 0 mm 2 m/S 757 mmHg 98%
    23:00 +26°C° 0 mm 2 m/S 757 mmHg 98%

    28 September, Freitag

    Zeit Temperatur Niederschläge Wind Luftdruck Luftfeuchtigkeit
    00:00 +26°C° 0 mm 2 m/S 757 mmHg 98%
    01:00 +26°C° 0.1 mm 2 m/S 757 mmHg 98%
    02:00 +26°C° 0.1 mm 2 m/S 756 mmHg 98%
    03:00 +26°C° 0.1 mm 2 m/S 756 mmHg 98%
    04:00 +26°C° 0.1 mm 2 m/S 757 mmHg 98%
    05:00 +26°C° 0.1 mm 2 m/S 757 mmHg 98%
    06:00 +26°C° 0.1 mm 2 m/S 757 mmHg 99%
    07:00 +27°C° 0.2 mm 2 m/S 758 mmHg 93%
    08:00 +29°C° 0.2 mm 2 m/S 758 mmHg 86%
    09:00 +30°C° 0.2 mm 3 m/S 758 mmHg 80%
    10:00 +31°C° 0.7 mm 3 m/S 758 mmHg 79%
    11:00 +31°C° 0.7 mm 3 m/S 758 mmHg 77%
    12:00 +33°C° 0.7 mm 3 m/S 757 mmHg 76%
    13:00 +33°C° 0.6 mm 3 m/S 757 mmHg 75%
    14:00 +33°C° 0.6 mm 3 m/S 756 mmHg 73%
    15:00 +33°C° 0.6 mm 3 m/S 756 mmHg 72%
    16:00 +31°C° 0.2 mm 2 m/S 756 mmHg 78%
    17:00 +29°C° 0.2 mm 2 m/S 756 mmHg 84%
    18:00 +28°C° 0.2 mm 2 m/S 757 mmHg 90%
    19:00 +27°C° 0.1 mm 2 m/S 757 mmHg 92%
    20:00 +27°C° 0.1 mm 2 m/S 758 mmHg 94%
    21:00 +26°C° 0.1 mm 1 m/S 758 mmHg 96%
    22:00 +26°C° 0.1 mm 1 m/S 758 mmHg 97%
    23:00 +26°C° 0.1 mm 1 m/S 758 mmHg 97%

    29 September, Samstag

    Zeit Temperatur Niederschläge Wind Luftdruck Luftfeuchtigkeit
    00:00 +26°C° 0.1 mm 1 m/S 758 mmHg 98%
    01:00 +26°C° 0.1 mm 1 m/S 757 mmHg 98%
    02:00 +26°C° 0.1 mm 1 m/S 757 mmHg 98%
    03:00 +25°C° 0.1 mm 1 m/S 757 mmHg 98%
    04:00 +25°C° 0.1 mm 1 m/S 757 mmHg 98%
    05:00 +25°C° 0.1 mm 1 m/S 758 mmHg 99%
    06:00 +25°C° 0.1 mm 1 m/S 758 mmHg 99%
    07:00 +27°C° 0.2 mm 1 m/S 758 mmHg 92%
    08:00 +29°C° 0.2 mm 2 m/S 759 mmHg 84%
    09:00 +31°C° 0.2 mm 2 m/S 759 mmHg 77%
    10:00 +31°C° 0.7 mm 2 m/S 759 mmHg 74%
    11:00 +32°C° 0.7 mm 2 m/S 758 mmHg 71%
    12:00 +34°C° 0.7 mm 3 m/S 758 mmHg 68%
    13:00 +34°C° 0.5 mm 3 m/S 757 mmHg 67%
    14:00 +34°C° 0.5 mm 3 m/S 757 mmHg 66%
    15:00 +34°C° 0.5 mm 3 m/S 756 mmHg 65%
    16:00 +31°C° 0.1 mm 2 m/S 756 mmHg 71%
    17:00 +30°C° 0.1 mm 2 m/S 757 mmHg 77%
    18:00 +28°C° 0.1 mm 2 m/S 757 mmHg 83%
    19:00 +27°C° 0 mm 2 m/S 757 mmHg 87%
    20:00 +27°C° 0 mm 1 m/S 758 mmHg 91%
    21:00 +26°C° 0 mm 1 m/S 758 mmHg 95%
    22:00 +26°C° 0 mm 1 m/S 758 mmHg 96%
    23:00 +25°C° 0 mm 1 m/S 758 mmHg 97%
    Mehr zeigen